Location: ?????????
(44.2517°N, 135.2292°E)
Time: 14:36:40
(UTC+00:00)

ADEOS II - Pass Details

Date: 19 May 2025
Orbit: 793 x 796 km, 98.7° (Epoch: 19 June)

Event Time Altitude Azimuth Distance (km) Brightness Sun altitude
Rises 18:37:55 0° 5° (N) 3,306 6.0 -8.2°
Reaches altitude 10° 18:40:27 10° 355° (N) 2,372 5.0 -7.8°
Maximum altitude 18:45:01 31° 295° (WNW) 1,358 3.1 -7.2°
Drops below altitude 10° 18:49:33 10° 234° (SW) 2,358 3.8 -6.5°
Enters shadow 18:50:06 - 231° (SW) 2,549 4.0 -6.5°
